Tracking 19489 objects as of 23-Jan-2019
HD Live streaming from Space Station
objects crossing your sky now

SL-14 R/B

Track SL-14 R/B now!
10-day predictions
SL-14 R/B is classified as:


NORAD ID: 21820
Int'l Code: 1991-086B
Perigee: 442.5 km
Apogee: 2,992.6 km
Inclination: 82.6 °
Period: 120.7 minutes
Semi major axis: 8088 km
RCS: 5.3273 m2 (large)
Launch date: December 18, 1991
Source: Commonwealth of Independent States (former USSR) (CIS)
Launch site: PLESETSK MISSILE AND SPACE COMPLEX (PKMTR)

Note: This is a ROCKET BODY
aabbcc
Your satellite tracking list
Your tracking list is empty




NASA's NSSDC Master Catalog

Two Line Element Set (TLE):
1 21820U 91086B   19022.86229628 +.00000126 +00000-0 +18143-4 0  9994
2 21820 082.5627 133.5641 1576307 133.4517 240.9057 11.93430007176527
Source of the keplerian elements: AFSPC